Weather History for KRDM - July, 2013

Change the Weather History Date:

Saturday, July 27, 2013

  Actual Average Record
Temperature  
Mean Temperature 68 °F 68 °F  
Max Temperature 88 °F 88 °F 103 °F (1968)
Min Temperature 48 °F 47 °F 38 °F (1986)
Degree Days  
Heating Degree Days 0 1  
Month to date heating degree days 16 64  
Since 1 June heating degree days 201 281  
Since 1 July heating degree days 16 64  
Cooling Degree Days 3 4  
Month to date cooling degree days 160 84  
Year to date cooling degree days 208 113  
Since 1 June cooling degree days 199 108  
Growing Degree Days 18 (Base 50)    
Moisture  
Dew Point 28 °F    
Average Humidity 25    
Maximum Humidity 42    
Minimum Humidity 8    
Precipitation  
Precipitation 0.00 in 0.02 in 0.02 in (1983)
Month to date precipitation 0.00 0.48  
Year to date precipitation 1.92 5.16  
Sea Level Pressure  
Sea Level Pressure 30.00 in    
Wind  
Wind Speed 6 mph (NW)    
Max Wind Speed 18 mph    
Max Gust Speed 24 mph    
Visibility 10 miles    
Events      
T = Trace of Precipitation, MM = Missing Value Source: NWS Daily Summary

Daily Weather History Graph

Daily Weather History Graph

Search for Another Location

Airport or City:

Trip Planner

Search our weather history database for the weather conditions in past years. The results will help you decide how hot, cold, wet, or windy it might be!

Date:

Astronomy

Jul. 27, 2013 Rise Set
Actual Time 5:47 AM PDT 8:34 PM PDT
Civil Twilight 5:13 AM PDT 9:08 PM PDT
Nautical Twilight 4:30 AM PDT 9:50 PM PDT
Astronomical Twilight 3:40 AM PDT 10:39 PM PDT
Moon 11:08 PM PDT (7/27) 11:48 AM PDT (7/27)
Length of Visible Light 15h 54m
Length of Day
14h 47m
Waning Gibbous, 70% of the Moon is Illuminated
Jul 27
Waning Gibbous
Jul 29
Last Quarter
Aug 6
New
Aug 14
First Quarter
Aug 20
Full

Hourly Weather History & Observations

Time (PDT) Temp. Dew Point Humidity Pressure Visibility Wind Dir Wind Speed Gust Speed Precip Events Conditions
12:56 AM 63.0 °F 28.0 °F 27% 30.06 in 10.0 mi WSW 4.6 mph - N/A   Clear
1:56 AM 55.0 °F 27.0 °F 34% 30.07 in 10.0 mi South 3.5 mph - N/A   Clear
2:56 AM 53.1 °F 28.0 °F 38% 30.06 in 10.0 mi North - - N/A   Clear
3:56 AM 50.0 °F 27.0 °F 41% 30.06 in 10.0 mi SSE 5.8 mph - N/A   Clear
4:56 AM 52.0 °F 28.0 °F 40% 30.06 in 10.0 mi South 6.9 mph - N/A   Clear
5:56 AM 50.0 °F 28.9 °F 44% 30.08 in 10.0 mi South 3.5 mph - N/A   Clear
6:56 AM 57.0 °F 33.1 °F 40% 30.08 in 10.0 mi South 3.5 mph - N/A   Clear
7:56 AM 66.0 °F 35.1 °F 32% 30.07 in 10.0 mi Calm Calm - N/A   Clear
8:56 AM 71.1 °F 30.9 °F 23% 30.07 in 10.0 mi Calm Calm - N/A   Clear
9:56 AM 73.9 °F 28.0 °F 18% 30.05 in 10.0 mi NW 6.9 mph - N/A   Clear
10:56 AM 78.1 °F 27.0 °F 15% 30.05 in 10.0 mi Variable 4.6 mph - N/A   Clear
11:56 AM 79.0 °F 27.0 °F 15% 30.03 in 10.0 mi Calm Calm - N/A   Clear
12:56 PM 82.9 °F 25.0 °F 12% 30.00 in 10.0 mi Variable 4.6 mph - N/A   Clear
1:56 PM 82.9 °F 23.0 °F 11% 29.99 in 10.0 mi NNW 8.1 mph 17.3 mph N/A   Clear
2:56 PM 84.0 °F 27.0 °F 13% 29.96 in 10.0 mi Calm Calm - N/A   Clear
3:56 PM 87.1 °F 21.9 °F 9% 29.94 in 10.0 mi North 12.7 mph - N/A   Clear
4:56 PM 87.1 °F 19.9 °F 8% 29.92 in 10.0 mi NNW 16.1 mph 23.0 mph N/A   Clear
5:56 PM 84.9 °F 24.1 °F 11% 29.91 in 10.0 mi North 15.0 mph 18.4 mph N/A   Clear
6:56 PM 82.9 °F 25.0 °F 12% 29.91 in 10.0 mi NNW 15.0 mph - N/A   Clear
7:56 PM 79.0 °F 30.0 °F 17% 29.91 in 10.0 mi NW 8.1 mph - N/A   Clear
8:56 PM 73.0 °F 36.0 °F 26% 29.91 in 10.0 mi WNW 13.8 mph - N/A   Clear
9:56 PM 68.0 °F 36.0 °F 31% 29.93 in 10.0 mi NNE 5.8 mph - N/A   Clear
10:56 PM 62.1 °F 33.1 °F 34% 29.94 in 10.0 mi Calm Calm - N/A   Clear
11:56 PM 53.1 °F 30.0 °F 41% 29.95 in 10.0 mi Calm Calm - N/A   Clear